Weather History for KVAY - August, 2013

Change the Weather History Date:

Thursday, August 1, 2013

  Actual Average (KWRI) Record (KWRI)
Temperature  
Mean Temperature 69 °F -  
Max Temperature 72 °F 83 °F 98 °F (2006)
Min Temperature 66 °F 64 °F 59 °F (1998)
Cooling Degree Days 4    
Growing Degree Days 19 (Base 50)    
Moisture  
Dew Point 66 °F    
Average Humidity 90    
Maximum Humidity 96    
Minimum Humidity 78    
Precipitation  
Precipitation 0.89 in - - ()
Sea Level Pressure  
Sea Level Pressure 29.90 in    
Wind  
Wind Speed 2 mph (SE)    
Max Wind Speed 7 mph    
Max Gust Speed -    
Visibility 6 miles    
Events Rain    
Averages and records for this station are not official NWS values.
T = Trace of Precipitation, MM = Missing Value Source: NWS Daily Summary

Daily Weather History Graph

Daily Weather History Graph

Search for Another Location

Airport or City:

Trip Planner

Search our weather history database for the weather conditions in past years. The results will help you decide how hot, cold, wet, or windy it might be!

Date:

Astronomy

Aug. 01, 2013 Rise Set
Actual Time 5:58 AM EDT 8:12 PM EDT
Civil Twilight 5:27 AM EDT 8:42 PM EDT
Nautical Twilight 4:50 AM EDT 9:19 PM EDT
Astronomical Twilight 4:09 AM EDT 10:00 PM EDT
Moon 1:32 AM EDT (8/1) 4:19 PM EDT (8/1)
Length of Visible Light 15h 14m
Length of Day
14h 14m
Waning Crescent, 23% of the Moon is Illuminated
Aug 1
Waning Crescent
Aug 6
New
Aug 14
First Quarter
Aug 20
Full
Aug 28
Last Quarter

Hourly Weather History & Observations

Time (EDT) Temp. Dew Point Humidity Pressure Visibility Wind Dir Wind Speed Gust Speed Precip Events Conditions
12:54 AM 70.0 °F 63.0 °F 78% 30.04 in 10.0 mi Calm Calm - N/A   Overcast
1:54 AM 69.1 °F 63.0 °F 81% 30.02 in 10.0 mi Calm Calm - N/A   Clear
2:54 AM 66.9 °F 63.0 °F 87% 30.00 in 10.0 mi Calm Calm - N/A   Scattered Clouds
3:54 AM 66.9 °F 63.0 °F 87% 29.98 in 9.0 mi Calm Calm - N/A   Clear
4:54 AM 68.0 °F 64.0 °F 87% 29.97 in 9.0 mi Calm Calm - N/A   Mostly Cloudy
5:54 AM 69.1 °F 64.0 °F 84% 29.97 in 10.0 mi Calm Calm - N/A   Overcast
6:54 AM 68.0 °F 64.9 °F 90% 29.97 in 6.0 mi Calm Calm - 0.01 in Rain Light Rain
7:54 AM 69.1 °F 66.0 °F 90% 29.97 in 2.0 mi Calm Calm - 0.03 in Rain Light Rain
8:02 AM 68.0 °F 66.2 °F 94% 29.96 in 1.2 mi Calm Calm - 0.03 in Rain Rain
8:32 AM 68.0 °F 66.2 °F 94% 29.95 in 3.0 mi ESE 3.5 mph - 0.07 in Rain Light Rain
8:45 AM 68.0 °F 66.2 °F 94% 29.96 in 2.5 mi SE 3.5 mph - 0.08 in Rain Light Rain
8:54 AM 68.0 °F 66.0 °F 93% 29.96 in 2.0 mi SE 3.5 mph - 0.10 in Rain Rain
9:24 AM 68.0 °F 66.2 °F 94% 29.95 in 4.0 mi SE 5.8 mph - 0.03 in Rain Light Rain
9:54 AM 68.0 °F 64.9 °F 90% 29.95 in 4.0 mi Variable 6.9 mph - 0.03 in Rain Light Rain
10:54 AM 68.0 °F 64.9 °F 90% 29.93 in 6.0 mi ESE 3.5 mph - 0.00 in Rain Light Rain
11:31 AM 68.0 °F 66.2 °F 94% 29.92 in 2.5 mi SE 3.5 mph - 0.03 in Rain Rain
11:39 AM 68.0 °F 66.2 °F 94% 29.92 in 4.0 mi SE 5.8 mph - 0.04 in Rain Light Rain
11:54 AM 69.1 °F 66.0 °F 90% 29.92 in 3.0 mi Calm Calm - 0.07 in Rain Rain
11:57 AM 69.8 °F 66.2 °F 88% 29.92 in 1.8 mi Calm Calm - 0.03 in Rain Heavy Rain
12:01 PM 68.0 °F 66.2 °F 94% 29.91 in 0.8 mi Variable 3.5 mph - 0.16 in Rain Heavy Rain
12:11 PM 68.0 °F 66.2 °F 94% 29.90 in 1.2 mi ESE 4.6 mph - 0.27 in Rain Light Rain
12:13 PM 69.8 °F 66.2 °F 88% 29.91 in 3.0 mi ESE 3.5 mph - 0.27 in Rain Light Rain
12:50 PM 69.8 °F 66.2 °F 88% 29.91 in 6.0 mi North 4.6 mph - 0.27 in   Overcast
12:54 PM 69.1 °F 66.9 °F 93% 29.91 in 5.0 mi North 4.6 mph - 0.27 in   Overcast
1:06 PM 69.8 °F 66.2 °F 88% 29.91 in 1.8 mi East 3.5 mph - 0.05 in Rain Heavy Rain
1:09 PM 69.8 °F 66.2 °F 88% 29.90 in 0.8 mi East 4.6 mph - 0.16 in Rain Heavy Rain
1:21 PM 68.0 °F 66.2 °F 94% 29.91 in 1.2 mi East 3.5 mph - 0.24 in Rain Rain
1:32 PM 68.0 °F 66.2 °F 94% 29.89 in 2.0 mi East 5.8 mph - 0.25 in Rain Light Rain
1:54 PM 68.0 °F 66.9 °F 96% 29.88 in 1.5 mi ESE 3.5 mph - 0.30 in Rain Rain
2:14 PM 69.8 °F 68.0 °F 94% 29.86 in 3.0 mi SSE 5.8 mph - 0.05 in Rain Light Rain
2:41 PM 69.8 °F 68.0 °F 94% 29.87 in 6.0 mi Variable 5.8 mph - 0.08 in   Overcast
2:54 PM 70.0 °F 66.9 °F 90% 29.86 in 7.0 mi SSE 5.8 mph - 0.08 in   Mostly Cloudy
3:02 PM 69.8 °F 66.2 °F 88% 29.86 in 8.0 mi Variable 3.5 mph - N/A   Mostly Cloudy
3:54 PM 70.0 °F 66.9 °F 90% 29.86 in 10.0 mi Variable 4.6 mph - 0.00 in   Mostly Cloudy
4:14 PM 71.6 °F 66.2 °F 83% 29.85 in 10.0 mi Variable 5.8 mph - N/A   Overcast
4:54 PM 71.1 °F 68.0 °F 90% 29.86 in 9.0 mi Variable 3.5 mph - N/A   Overcast
5:54 PM 71.1 °F 69.1 °F 93% 29.84 in 9.0 mi South 4.6 mph - N/A   Overcast
6:54 PM 72.0 °F 69.1 °F 91% 29.85 in 10.0 mi Variable 5.8 mph - N/A   Overcast
7:02 PM 71.6 °F 69.8 °F 94% 29.85 in 10.0 mi Variable 3.5 mph - N/A   Overcast
7:10 PM 71.6 °F 68.0 °F 88% 29.86 in 10.0 mi South 4.6 mph - N/A   Overcast
7:22 PM 71.6 °F 68.0 °F 88% 29.86 in 10.0 mi South 5.8 mph - N/A   Overcast
7:34 PM 71.6 °F 68.0 °F 88% 29.85 in 10.0 mi Variable 3.5 mph - N/A   Overcast
7:52 PM 71.6 °F 68.0 °F 88% 29.85 in 10.0 mi Variable 4.6 mph - N/A   Mostly Cloudy
7:54 PM 71.1 °F 68.0 °F 90% 29.86 in 10.0 mi Calm Calm - N/A   Overcast
8:54 PM 71.1 °F 66.9 °F 87% 29.86 in 10.0 mi SSW 3.5 mph - N/A   Overcast
9:36 PM 69.8 °F 66.2 °F 88% 29.84 in 10.0 mi Calm Calm - N/A   Overcast
9:54 PM 70.0 °F 66.9 °F 90% 29.84 in 10.0 mi Calm Calm - N/A   Overcast
10:54 PM 70.0 °F 68.0 °F 93% 29.85 in 10.0 mi Calm Calm - N/A   Overcast
11:37 PM 69.8 °F 66.2 °F 88% 29.84 in 9.0 mi Calm Calm - N/A   Scattered Clouds
11:54 PM 69.1 °F 66.9 °F 93% 29.84 in 10.0 mi Calm Calm - N/A   Clear